IK2YOU-3 Weather Reports


Display with metric or nautical units.
time (UTC)temp
F
wind
direction
speed
MPH
gust
MPH
rain 1hr
in
rain 24hr
in
rain mn
in
humidity
%
barometer
mb
20260506225406 56 27 1.0 3.0 0.00 0.23 0.00 83 1008.2
20260506224407 57 27 1.0 5.0 0.00 0.23 0.00 82 1008.1
20260506223407 57 49 4.0 8.0 0.00 0.23 0.00 82 1008.1
20260506222406 57 28 4.0 9.0 0.00 0.23 0.00 83 1008.1
20260506221406 57 58 2.0 5.0 0.00 0.23 0.00 85 1008.1
20260506220406 57 299 0.0 2.0 0.00 0.23 0.00 85 1008.2
20260506215403 57 299 0.0 2.0 0.00 0.23 0.23 85 1008.1
20260506214403 57 299 0.0 3.0 0.00 0.23 0.23 84 1008.2
20260506213404 58 299 2.0 5.0 0.00 0.23 0.23 84 1008.0
20260506212404 58 34 2.0 4.0 0.00 0.23 0.23 84 1008.0
20260506211403 58 44 2.0 4.0 0.00 0.23 0.23 84 1007.9
20260506210403 58 43 1.0 3.0 0.00 0.23 0.23 84 1007.9
20260506205403 58 46 2.0 5.0 0.00 0.23 0.23 84 1007.9
20260506204416 58 32 3.0 8.0 0.00 0.23 0.23 84 1007.8
20260506203404 58 12 2.0 5.0 0.00 0.23 0.23 84 1007.8
20260506202400 58 355 2.0 8.0 0.00 0.23 0.23 83 1007.8
20260506201401 58 32 2.0 5.0 0.00 0.23 0.23 83 1007.6
20260506200359 58 56 3.0 6.0 0.00 0.23 0.23 83 1007.4
20260506195359 58 57 3.0 5.0 0.00 0.23 0.23 83 1007.2
20260506194359 58 49 3.0 8.0 0.00 0.23 0.23 83 1007.2
20260506193403 58 46 3.0 6.0 0.00 0.23 0.23 82 1007.2
20260506192842 58 54 4.0 9.0 0.00 0.23 0.23 82 1007.1
20260506192616 58 54 4.0 9.0 0.00 0.23 0.23 82 1007.1
20260506191401 59 0 4.0 10.0 0.00 0.23 0.23 82 1007.1
20260506190401 59 19 4.0 6.0 0.00 0.23 0.23 82 1007.1
20260506185401 59 41 4.0 9.0 0.00 0.23 0.23 82 1006.9
20260506184401 59 315 3.0 7.0 0.00 0.23 0.23 82 1006.7
20260506183852 59 40 4.0 8.0 0.00 0.23 0.23 82 1006.3
20260506183615 59 40 4.0 8.0 0.00 0.23 0.23 82 1006.3
20260506182402 59 0 3.0 8.0 0.00 0.23 0.23 81 1006.2
20260506181402 60 319 3.0 9.0 0.00 0.23 0.23 81 1006.1
20260506180416 60 348 4.0 9.0 0.00 0.23 0.23 79 1005.9
20260506175402 61 327 4.0 11.0 0.00 0.23 0.23 78 1005.8
20260506174402 61 340 4.0 11.0 0.00 0.23 0.23 77 1005.5
20260506173400 62 323 5.0 11.0 0.00 0.23 0.23 77 1005.3
20260506172401 62 42 4.0 9.0 0.00 0.23 0.23 76 1005.2
20260506171401 62 332 4.0 10.0 0.00 0.23 0.23 76 1005.1
20260506170401 63 334 4.0 11.0 0.00 0.23 0.23 76 1004.9
20260506165401 63 0 5.0 12.0 0.00 0.23 0.23 76 1004.7
20260506164400 63 315 7.0 14.0 0.00 0.23 0.23 75 1004.5
20260506163400 65 332 6.0 15.0 0.00 0.23 0.23 73 1004.3
20260506162401 65 337 7.0 19.0 0.00 0.23 0.23 71 1004.2
20260506161400 68 302 8.0 15.0 0.00 0.23 0.23 68 1003.6
20260506160401 73 313 5.0 14.0 0.00 0.23 0.23 55 1003.6
20260506155401 71 183 4.0 9.0 0.00 0.23 0.23 56 1003.4
20260506154401 71 180 3.0 7.0 0.00 0.23 0.23 59 1003.3
20260506153400 71 176 3.0 6.0 0.00 0.23 0.23 62 1003.4
20260506152401 71 171 3.0 8.0 0.00 0.23 0.23 64 1003.4
20260506151401 72 182 4.0 12.0 0.00 0.23 0.23 71 1003.5
20260506150401 72 112 5.0 12.0 0.00 0.23 0.23 69 1003.5
20260506145401 71 135 5.0 12.0 0.00 0.23 0.23 72 1003.6
20260506144836 71 97 5.0 14.0 0.00 0.23 0.23 75 1003.7
20260506144612 71 97 5.0 14.0 0.00 0.23 0.23 75 1003.7
20260506143401 71 135 6.0 14.0 0.00 0.23 0.23 73 1003.7
20260506142401 72 115 6.0 21.0 0.00 0.23 0.23 72 1003.9
20260506141400 71 136 6.0 15.0 0.00 0.23 0.23 71 1004.1
20260506140401 71 79 6.0 16.0 0.00 0.23 0.23 72 1004.2
20260506135402 71 126 7.0 16.0 0.00 0.23 0.23 71 1004.5
20260506134401 71 144 5.0 16.0 0.00 0.23 0.23 72 1004.5
20260506133836 71 94 5.0 14.0 0.00 0.23 0.23 72 1004.8
20260506133613 71 94 5.0 14.0 0.00 0.23 0.23 72 1004.8
20260506132402 71 81 6.0 13.0 0.00 0.23 0.23 73 1004.8
20260506131401 72 135 5.0 18.0 0.00 0.23 0.23 71 1004.9
20260506130400 71 133 5.0 12.0 0.00 0.23 0.23 73 1004.8
20260506125401 70 109 6.0 15.0 0.00 0.23 0.23 74 1005.0
20260506124401 70 71 5.0 13.0 0.00 0.23 0.23 76 1005.0
20260506123858 68 90 6.0 14.0 0.00 0.23 0.23 78 1004.9
20260506123614 68 90 6.0 14.0 0.00 0.23 0.23 78 1004.9
20260506122402 68 86 9.0 15.0 0.00 0.23 0.23 81 1005.0
20260506121400 68 89 7.0 16.0 0.00 0.23 0.23 81 1005.0
20260506120400 68 102 6.0 17.0 0.00 0.23 0.23 81 1005.2
20260506115841 67 116 7.0 18.0 0.00 0.23 0.23 83 1005.3
20260506115613 67 116 7.0 18.0 0.00 0.23 0.23 83 1005.3
20260506114842 67 90 7.0 16.0 0.00 0.23 0.23 83 1005.4
20260506114614 67 90 7.0 16.0 0.00 0.23 0.23 83 1005.4
20260506113402 67 91 5.0 13.0 0.00 0.23 0.23 83 1005.6
20260506112401 65 120 7.0 16.0 0.00 0.23 0.23 85 1005.5
20260506111401 64 96 6.0 13.0 0.00 0.23 0.23 85 1005.6
20260506110844 63 110 7.0 17.0 0.00 0.23 0.23 85 1005.8
20260506110612 63 110 7.0 17.0 0.00 0.23 0.23 85 1005.8
20260506105400 63 117 7.0 15.0 0.00 0.23 0.23 85 1005.7
20260506104401 63 167 6.0 13.0 0.00 0.23 0.23 84 1005.8
20260506103413 64 72 4.0 12.0 0.00 0.23 0.23 84 1005.8
20260506102400 64 96 6.0 14.0 0.00 0.23 0.23 84 1005.8
20260506101402 63 105 6.0 13.0 0.00 0.23 0.23 85 1005.9
20260506100402 64 104 6.0 16.0 0.00 0.23 0.23 83 1005.9
20260506095416 63 121 6.0 17.0 0.00 0.23 0.23 81 1005.8
20260506094401 63 101 6.0 13.0 0.00 0.23 0.23 76 1005.7
20260506093400 61 78 7.0 14.0 0.01 0.23 0.23 72 1005.8
20260506092401 61 120 7.0 14.0 0.04 0.23 0.23 68 1005.9
20260506091401 60 116 7.0 14.0 0.09 0.23 0.23 68 1005.8
20260506090845 59 97 6.0 12.0 0.13 0.23 0.23 68 1005.8
20260506090614 59 97 6.0 12.0 0.13 0.23 0.23 68 1005.8
20260506085401 58 102 3.0 11.0 0.16 0.23 0.23 68 1005.8
20260506084401 58 113 4.0 10.0 0.16 0.23 0.23 69 1006.2
20260506083401 58 105 3.0 8.0 0.15 0.22 0.22 72 1006.1
20260506082401 58 111 5.0 14.0 0.12 0.19 0.19 72 1006.4
20260506081401 58 98 6.0 12.0 0.07 0.14 0.15 73 1006.2
20260506080836 58 93 4.0 15.0 0.02 0.09 0.10 74 1006.2
20260506080614 58 93 4.0 15.0 0.02 0.09 0.10 74 1006.2
20260506073401 59 115 8.0 15.0 0.00 0.07 0.07 71 1005.7
20260506072414 59 117 7.0 14.0 0.00 0.07 0.07 69 1005.8
20260506071400 58 122 9.0 16.0 0.00 0.07 0.07 68 1005.8
20260506070401 59 92 8.0 15.0 0.00 0.07 0.07 67 1005.9
20260506062405 57 101 5.0 15.0 0.00 0.07 0.07 66 1006.4
20260506061400 57 111 7.0 12.0 0.00 0.07 0.07 66 1006.4
20260506060400 57 88 5.0 12.0 0.00 0.07 0.07 66 1006.5
20260506051401 57 76 5.0 13.0 0.02 0.07 0.07 66 1006.4
20260506050413 57 92 6.0 11.0 0.03 0.07 0.07 66 1006.5
20260506044402 57 95 4.0 8.0 0.03 0.06 0.06 67 1006.8
20260506043401 57 96 2.0 7.0 0.03 0.06 0.06 67 1006.8
20260506042843 57 138 2.0 6.0 0.03 0.06 0.06 67 1007.2
20260506042615 57 138 2.0 6.0 0.03 0.06 0.06 67 1007.2
20260506041839 57 130 2.0 9.0 0.02 0.05 0.05 67 1007.2
20260506041611 57 130 2.0 9.0 0.02 0.05 0.05 67 1007.2
20260506040838 57 139 2.0 7.0 0.02 0.04 0.04 67 1007.0
20260506040612 57 139 2.0 7.0 0.02 0.04 0.04 67 1007.0
20260506035357 57 142 2.0 7.0 0.04 0.04 0.04 68 1007.1
20260506034352 57 123 2.0 7.0 0.03 0.03 0.03 68 1007.2
20260506033604 57 126 2.0 8.0 0.02 0.02 0.02 69 1007.3
20260506032351 57 128 3.0 7.0 0.02 0.02 0.02 69 1007.3
20260506031828 57 95 3.0 6.0 0.02 0.02 0.02 71 1007.2
20260506031606 57 95 3.0 6.0 0.02 0.02 0.02 71 1007.2
20260506030352 57 82 2.0 6.0 0.02 0.02 0.02 71 1007.3
20260506025352 57 94 2.0 3.0 0.00 0.00 0.01 72 1007.5
20260506024825 57 82 2.0 6.0 0.00 0.00 0.00 72 1007.7
20260506024604 57 82 2.0 6.0 0.00 0.00 0.00 72 1007.7
20260506023345 57 95 3.0 7.0 0.00 0.00 0.00 72 1007.9
20260506022345 57 62 4.0 7.0 0.00 0.00 0.00 73 1008.0
20260506021818 57 101 2.0 8.0 0.00 0.00 0.00 73 1008.1
20260506021557 57 101 2.0 8.0 0.00 0.00 0.00 73 1008.1
20260506020345 57 80 2.0 6.0 0.00 0.00 0.00 73 1008.2
20260506015345 57 123 2.0 6.0 0.00 0.00 0.00 73 1008.2
20260506014345 57 87 2.0 8.0 0.00 0.00 0.00 73 1008.4
20260506013345 57 117 1.0 7.0 0.00 0.00 0.00 73 1008.3
20260506012345 57 140 4.0 8.0 0.00 0.00 0.00 74 1008.3
20260506011345 57 101 4.0 8.0 0.00 0.00 0.00 74 1008.2
20260506010354 57 119 3.0 0.0 0.00 0.00 0.00 74 1008.2
20260506005420 57 103 2.0 6.0 0.00 0.18 0.00 74 1008.0
20260506004419 57 91 1.0 3.0 0.00 0.18 0.00 75 1008.1
20260506003416 57 112 1.0 6.0 0.00 0.18 0.00 74 1008.3
20260506002847 57 92 3.0 7.0 0.00 0.18 0.00 74 1008.5
20260506002627 57 92 3.0 7.0 0.00 0.18 0.00 74 1008.5
20260506001416 57 107 2.0 6.0 0.00 0.18 0.00 74 1008.7
20260506000416 58 105 2.0 6.0 0.00 0.18 0.00 74 1008.8
20260505235415 58 98 2.0 8.0 0.00 0.18 0.00 73 1009.0
20260505234415 57 97 1.0 3.0 0.00 0.18 0.00 73 1009.1
20260505233415 57 117 1.0 3.0 0.00 0.18 0.00 74 1009.2
20260505232416 57 95 1.0 3.0 0.00 0.18 0.00 74 1009.3
20260505231854 57 95 0.0 4.0 0.00 0.18 0.00 74 1009.2
20260505231629 57 95 0.0 4.0 0.00 0.18 0.00 74 1009.2
20260505230413 57 95 1.0 2.0 0.00 0.18 0.00 74 1009.3